Weather History for Rickenbacker, OH

Change the Weather History Date:

Thursday, April 10, 2014

  Actual Average Record
Temperature  
Mean Temperature 58 °F -  
Max Temperature 74 °F 63 °F 86 °F (2011)
Min Temperature 41 °F 42 °F 21 °F (1997)
Degree Days  
Heating Degree Days 8    
Growing Degree Days 8 (Base 50)    
Moisture  
Dew Point 31 °F    
Average Humidity 41    
Maximum Humidity 67    
Minimum Humidity 18    
Precipitation  
Precipitation 0.00 in - - ()
Sea Level Pressure  
Sea Level Pressure 29.96 in    
Wind  
Wind Speed 12 mph (SSW)    
Max Wind Speed 29 mph    
Max Gust Speed 39 mph    
Visibility 10 miles    
Events      
Averages and records for this station are not official NWS values.
T = Trace of Precipitation, MM = Missing Value Source: NWS Daily Summary

Daily Weather History Graph

Daily Weather History Graph

Search for Another Location

Airport:

Trip Planner

Search our weather history database for the weather conditions in past years. The results will help you decide how hot, cold, wet, or windy it might be!

Date:

Astronomy

Apr. 10, 2014 Rise Set
Actual Time 7:01 AM EDT 8:04 PM EDT
Civil Twilight 6:34 AM EDT 8:32 PM EDT
Nautical Twilight 6:01 AM EDT 9:05 PM EDT
Astronomical Twilight 5:26 AM EDT 9:40 PM EDT
Moon 3:48 PM EDT (4/10) 4:23 AM EDT (4/10)
Length of Visible Light 13h 58m
Length of Day
13h 03m
Waxing Gibbous, 79% of the Moon is Illuminated
Apr 10
Waxing Gibbous
Apr 15
Full
Apr 22
Last Quarter
Apr 29
New
May 6
First Quarter

Hourly Weather History & Observations

Time (EDT) Temp. Windchill Dew Point Humidity Pressure Visibility Wind Dir Wind Speed Gust Speed Precip Events Conditions
12:15 AM 43.7 °F 39.7 °F 32.5 °F 65% 30.03 in 10.0 mi SSE 6.9 mph - N/A   Clear
12:35 AM 43.7 °F 41.1 °F 32.5 °F 65% 30.03 in 10.0 mi South 4.6 mph - N/A   Clear
12:55 AM 44.2 °F 41.0 °F 32.2 °F 63% 30.03 in 10.0 mi South 5.8 mph - N/A   Clear
1:15 AM 43.7 °F 40.3 °F 32.2 °F 64% 30.03 in 10.0 mi South 5.8 mph - N/A   Clear
1:35 AM 43.7 °F 40.3 °F 32.0 °F 63% 30.03 in 10.0 mi South 5.8 mph - N/A   Clear
1:55 AM 44.1 °F 39.5 °F 32.0 °F 63% 30.03 in 10.0 mi South 8.1 mph - N/A   Clear
2:15 AM 44.8 °F 40.4 °F 32.0 °F 61% 30.02 in 10.0 mi South 8.1 mph - N/A   Clear
2:35 AM 44.8 °F 40.4 °F 31.8 °F 60% 30.02 in 10.0 mi South 8.1 mph - N/A   Clear
2:55 AM 44.4 °F 39.0 °F 31.6 °F 61% 30.01 in 10.0 mi South 10.4 mph - N/A   Clear
3:15 AM 44.6 °F 40.7 °F 31.3 °F 60% 30.02 in 10.0 mi SSW 6.9 mph - N/A   Clear
3:35 AM 43.5 °F 39.4 °F 31.1 °F 62% 30.03 in 10.0 mi SSW 6.9 mph - N/A   Clear
3:55 AM 42.1 °F 39.2 °F 30.9 °F 65% 30.03 in 10.0 mi SSW 4.6 mph - N/A   Clear
4:15 AM 41.5 °F 38.6 °F 31.1 °F 66% 30.03 in 10.0 mi SSW 4.6 mph - N/A   Clear
4:35 AM 42.3 °F 38.6 °F 31.1 °F 65% 30.03 in 10.0 mi SSW 5.8 mph - N/A   Clear
4:55 AM 42.4 °F 39.6 °F 30.9 °F 64% 30.03 in 10.0 mi South 4.6 mph - N/A   Clear
5:15 AM 41.5 °F 37.8 °F 31.1 °F 66% 30.03 in 10.0 mi South 5.8 mph - N/A   Clear
5:35 AM 41.4 °F 37.6 °F 31.1 °F 67% 30.03 in 10.0 mi South 5.8 mph - N/A   Clear
5:55 AM 41.4 °F 37.6 °F 30.9 °F 66% 30.04 in 10.0 mi South 5.8 mph - N/A   Clear
6:15 AM 41.4 °F 36.8 °F 31.3 °F 67% 30.04 in 10.0 mi South 6.9 mph - N/A   Clear
6:35 AM 41.9 °F 35.9 °F 31.5 °F 66% 30.04 in 10.0 mi South 10.4 mph - N/A   Clear
6:55 AM 43.0 °F 36.8 °F 31.6 °F 64% 30.04 in 10.0 mi South 11.5 mph - N/A   Clear
7:15 AM 43.5 °F 37.9 °F 31.8 °F 63% 30.05 in 10.0 mi South 10.4 mph - N/A   Clear
7:35 AM 44.4 °F 39.0 °F 32.0 °F 62% 30.06 in 10.0 mi South 10.4 mph - N/A   Clear
7:55 AM 45.5 °F 39.6 °F 32.0 °F 59% 30.06 in 10.0 mi South 12.7 mph - N/A   Clear
8:15 AM 47.3 °F - 32.2 °F 56% 30.06 in 10.0 mi South 13.8 mph - N/A   Clear
8:35 AM 49.3 °F - 32.5 °F 53% 30.06 in 10.0 mi South 11.5 mph - N/A   Clear
8:55 AM 50.9 °F - 32.4 °F 49% 30.06 in 10.0 mi South 12.7 mph 19.6 mph N/A   Clear
9:15 AM 52.7 °F - 32.0 °F 45% 30.05 in 10.0 mi South 16.1 mph - N/A   Clear
9:35 AM 53.6 °F - 32.0 °F 44% 30.05 in 10.0 mi South 17.3 mph - N/A   Clear
9:55 AM 55.4 °F - 32.0 °F 41% 30.03 in 10.0 mi South 16.1 mph - N/A   Clear
10:15 AM 56.7 °F - 31.8 °F 39% 30.03 in 10.0 mi South 18.4 mph 24.2 mph N/A   Clear
10:35 AM 58.5 °F - 32.0 °F 37% 30.03 in 10.0 mi South 17.3 mph 24.2 mph N/A   Clear
10:55 AM 59.9 °F - 32.4 °F 35% 30.02 in 10.0 mi South 16.1 mph 23.0 mph N/A   Clear
11:15 AM 61.9 °F - 32.0 °F 33% 30.01 in 10.0 mi South 21.9 mph 27.6 mph N/A   Clear
11:35 AM 63.7 °F - 30.2 °F 28% 30.01 in 10.0 mi SSW 23.0 mph - N/A   Clear
11:55 AM 64.8 °F - 29.1 °F 26% 30.01 in 10.0 mi SSW 24.2 mph 29.9 mph N/A   Clear
12:15 PM 65.7 °F - 29.3 °F 26% 30.01 in 10.0 mi SSW 23.0 mph 31.1 mph N/A   Clear
12:35 PM 67.1 °F - 29.1 °F 24% 29.99 in 10.0 mi SSW 19.6 mph 31.1 mph N/A   Scattered Clouds
12:55 PM 67.5 °F - 29.1 °F 24% 29.98 in 10.0 mi SSW 23.0 mph 31.1 mph N/A   Clear
1:15 PM 68.9 °F - 28.6 °F 22% 29.96 in 10.0 mi South 24.2 mph 29.9 mph N/A   Scattered Clouds
1:35 PM 69.8 °F - 28.9 °F 22% 29.95 in 10.0 mi SSW 24.2 mph 28.8 mph N/A   Scattered Clouds
1:55 PM 69.3 °F - 27.5 °F 21% 29.94 in 10.0 mi SSW 25.3 mph 33.4 mph N/A   Clear
2:15 PM 68.9 °F - 27.7 °F 21% 29.93 in 10.0 mi SSW 25.3 mph 32.2 mph N/A   Clear
2:55 PM 70.7 °F - 27.1 °F 20% 29.90 in 10.0 mi SSW 25.3 mph 32.2 mph N/A   Clear
3:15 PM 71.8 °F - 27.5 °F 19% 29.88 in 10.0 mi South 21.9 mph 33.4 mph N/A   Clear
3:35 PM 72.1 °F - 27.1 °F 19% 29.87 in 10.0 mi SSW 24.2 mph 34.5 mph N/A   Clear
3:55 PM 72.9 °F - 28.2 °F 19% 29.85 in 10.0 mi South 26.5 mph 36.8 mph N/A   Clear
4:15 PM 73.4 °F - 27.9 °F 18% 29.83 in 10.0 mi SSW 28.8 mph 39.1 mph N/A   Clear
4:35 PM 74.1 °F - 27.5 °F 18% 29.82 in 10.0 mi SSW 27.6 mph 39.1 mph N/A   Clear
4:55 PM 74.1 °F - 28.4 °F 18% 29.81 in 10.0 mi South 25.3 mph 36.8 mph N/A   Clear
5:15 PM 73.4 °F - 28.4 °F 19% 29.82 in 10.0 mi SSW 26.5 mph 35.7 mph N/A   Clear
5:35 PM 72.7 °F - 29.3 °F 20% 29.83 in 10.0 mi SW 20.7 mph 32.2 mph N/A   Clear
5:55 PM 72.5 °F - 30.4 °F 21% 29.84 in 10.0 mi SW 24.2 mph 32.2 mph N/A   Clear
6:15 PM 72.3 °F - 31.3 °F 22% 29.85 in 10.0 mi SW 21.9 mph 32.2 mph N/A   Clear
6:35 PM 72.5 °F - 31.1 °F 22% 29.85 in 10.0 mi SW 18.4 mph 26.5 mph N/A   Clear
6:55 PM 72.5 °F - 31.8 °F 22% 29.85 in 10.0 mi SW 17.3 mph 32.2 mph N/A   Clear
7:15 PM 72.1 °F - 31.8 °F 23% 29.86 in 10.0 mi SW 21.9 mph 32.2 mph N/A   Clear
7:35 PM 70.9 °F - 31.8 °F 24% 29.86 in 10.0 mi SW 17.3 mph 23.0 mph N/A   Clear
7:55 PM 69.3 °F - 32.2 °F 25% 29.87 in 10.0 mi SW 17.3 mph 24.2 mph N/A   Clear
8:15 PM 67.5 °F - 33.1 °F 28% 29.88 in 10.0 mi SSW 12.7 mph - N/A   Clear
8:35 PM 66.2 °F - 34.2 °F 30% 29.89 in 10.0 mi SSW 12.7 mph - N/A   Clear
8:55 PM 65.7 °F - 35.6 °F 33% 29.90 in 10.0 mi SSW 13.8 mph - N/A   Clear
9:15 PM 65.3 °F - 36.1 °F 34% 29.90 in 10.0 mi SSW 12.7 mph - N/A   Clear
9:35 PM 65.3 °F - 36.0 °F 34% 29.90 in 10.0 mi South 15.0 mph 18.4 mph N/A   Clear
9:55 PM 65.7 °F - 35.6 °F 33% 29.90 in 10.0 mi South 16.1 mph 21.9 mph N/A   Clear
10:15 PM 65.3 °F - 36.0 °F 34% 29.91 in 10.0 mi SSW 16.1 mph - N/A   Clear
10:35 PM 65.7 °F - 36.0 °F 33% 29.91 in 10.0 mi SSW 18.4 mph 24.2 mph N/A   Clear
10:55 PM 66.4 °F - 35.6 °F 32% 29.91 in 10.0 mi SSW 19.6 mph - N/A   Scattered Clouds
11:15 PM 66.7 °F - 35.6 °F 32% 29.91 in 10.0 mi SSW 18.4 mph - N/A   Mostly Cloudy
11:35 PM 66.6 °F - 35.6 °F 32% 29.91 in 10.0 mi SSW 18.4 mph 23.0 mph N/A   Mostly Cloudy
11:55 PM 66.6 °F - 35.6 °F 32% 29.92 in 10.0 mi SSW 17.3 mph 25.3 mph N/A   Mostly Cloudy